OBJECT A, 60468

Orbit data source: Space-Track

You're viewing an Uncataloged Satellite

Recently launched and/or uncataloged satellites may have evolving metadata. Metadata may include but not limited to: Owner, Maufacturer, Bus, Motor, and Mission.

OBJECT A, 60468 is a satellite in SSO that was launched on Fri, 16 Aug 2024 UTC via an FALCON 9 launch vehicle from the Air Force Western Test Range (AFWTR). Unknown objects in Earth's orbit typically refer to objects detected orbiting the Earth but have not yet been identified or cataloged. These objects could be anything from previously untracked satellites, spent rocket stages, debris from satellite collisions, or even natural meteoroids temporarily captured by Earth's gravity.

Loading next visibility...
Identifier
60468, 2024-149A
Orbit
SSO
Country
Flag of TBDTBD
Related business
None
Manufacturer
Planet
Mission
Operational Commercial Imaging
Bus & Motor
CUBESAT 3U, Unknown motor
Mass
5.7 kg wet, 5.7 kg dry
Launch date (UTC)
2024-08-16 (1 year ago)
Launch vehicle
FALCON 9
Launch site
Air Force Western Test Range (AFWTR)
Object type
Unknown
Shape & HBR
Box + 2 Pan, 0.1 m
Radar Cross Section
0.035 m², Medium (>0.1 m² and < 1m²)

Expand to show TLE details & history
Last TLE update: 17 hours ago

TLE from 17 hours ago
0 OBJECT A
1 60468U 24149A   25260.19104745  .00007101  00000-0  27260-3 0  9999
2 60468  97.4007 336.7061 0005216 109.4571 250.7232 15.26757120 60317
Epoch: 2025-09-17T04:35Z
TLE epoch observation values (Epoch: 2025-09-17T04:35:06.499Z)
Latitude
-0.00001°
Longitude
-88.44152°
Altitude
489.798 km
Speed
7.619 km/s
True Right ascension
22h 26m 49s
True Declination
0° 00' 00"
Sunlit
Object was in full shadow at epoch
Visualization orbit readout
Latitude
Unknown
Longitude
Unknown
Altitude
Unknown
Speed
Unknown
Apparent Right ascension
Unknown
Apparent Declination
Unknown
Sunlit
N/A
Visualization observer readout
Local Sidereal Time
14:08:52
Azimuth
Unknown
Elevation
Unknown
Doppler factor
Unknown
Orbital elements
Apogee altitude
486.049 km
Perigee altitude
478.892 km
Semi-major axis
6,860.608 km
Eccentricity
0.00052
Inclination
97.4007°
RAAN
336.7061°
Arg. of periapsis
109.4571°
True anomaly
250.66679°
Mean anomaly
250.7232°
Eccentric anomaly
250.69499°
Mean motion
3.81944 °/min
Orbital period
94.25 mins
BSTAR
0.0002726
Loading maneuver chart data...
Computing Atmospheric mass density...
Loading historical data...
Loading historical data...
Loading historical data...
Loading historical data...
Loading historical data...
Loading historical data...
Loading historical data...

Documentation

Showing up to 5 results
|